DW0602 Weather Reports


Display with metric or nautical units.
time (UTC)temp
F
wind
direction
speed
MPH
gust
MPH
rain 1hr
in
rain 24hr
in
rain mn
in
humidity
%
barometer
mb
20260905200308 83 119 1.0 6.0 0.00 0.00 0.00 31 1021.0
20260905200028 82 61 0.0 7.0 0.00 0.00 0.00 29 1021.9
20260905195809 83 51 2.0 8.0 0.00 0.00 0.00 30 1021.0
20260905195306 83 131 3.0 8.0 0.00 0.00 0.00 29 1021.0
20260905194508 84 106 2.0 4.0 0.00 0.00 0.00 26 1021.9
20260905194304 85 73 1.0 4.0 0.00 0.00 0.00 28 1021.0
20260905193805 85 47 1.0 6.0 0.00 0.00 0.00 28 1021.0
20260905193305 86 51 2.0 6.0 0.00 0.00 0.00 27 1021.0
20260905193011 86 75 2.0 7.0 0.00 0.00 0.00 24 1021.9
20260905192804 87 323 2.0 5.0 0.00 0.00 0.00 25 1021.0
20260905192305 87 94 3.0 7.0 0.00 0.00 0.00 25 1021.2
20260905191516 85 100 4.0 8.0 0.00 0.00 0.00 25 1021.9
20260905191305 85 92 2.0 6.0 0.00 0.00 0.00 28 1021.2
20260905190758 84 145 1.0 4.0 0.00 0.00 0.00 27 1021.3
20260905190301 83 35 1.0 4.0 0.00 0.00 0.00 27 1021.3
20260905190035 83 40 1.0 4.0 0.00 0.00 0.00 28 1022.1
20260905185305 85 343 3.0 7.0 0.00 0.00 0.00 28 1021.3
20260905184800 86 78 3.0 7.0 0.00 0.00 0.00 25 1021.4
20260905184533 87 68 4.0 8.0 0.00 0.00 0.00 23 1022.1
20260905184301 88 46 2.0 6.0 0.00 0.00 0.00 25 1021.3
20260905183801 88 176 2.0 6.0 0.00 0.00 0.00 23 1021.4
20260905183259 88 72 1.0 5.0 0.00 0.00 0.00 25 1021.4
20260905183014 88 35 1.0 7.0 0.00 0.00 0.00 22 1022.2
20260905182802 88 54 2.0 6.0 0.00 0.00 0.00 25 1021.5
20260905182256 88 46 2.0 6.0 0.00 0.00 0.00 23 1021.5
20260905181755 89 113 1.0 5.0 0.00 0.00 0.00 24 1021.5
20260905181516 88 152 1.0 6.0 0.00 0.00 0.00 22 1022.4
20260905181257 88 302 2.0 6.0 0.00 0.00 0.00 23 1021.7
20260905180756 88 296 2.0 7.0 0.00 0.00 0.00 23 1021.8
20260905180254 87 291 2.0 7.0 0.00 0.00 0.00 24 1021.7
20260905180029 87 84 1.0 7.0 0.00 0.00 0.00 23 1022.4
20260905175754 87 178 2.0 6.0 0.00 0.00 0.00 24 1021.7
20260905175255 88 278 1.0 6.0 0.00 0.00 0.00 25 1021.8
20260905174755 87 54 2.0 6.0 0.00 0.00 0.00 27 1021.8
20260905174527 86 65 2.0 6.0 0.00 0.00 0.00 27 1022.4
20260905174256 87 74 2.0 6.0 0.00 0.00 0.00 25 1021.8
20260905173752 87 105 2.0 6.0 0.00 0.00 0.00 25 1021.9
20260905173250 87 29 1.0 6.0 0.00 0.00 0.00 26 1021.9
20260905173032 86 57 1.0 7.0 0.00 0.00 0.00 26 1022.6
20260905172251 86 43 2.0 6.0 0.00 0.00 0.00 26 1022.0
20260905171754 85 27 2.0 6.0 0.00 0.00 0.00 29 1022.0
20260905171511 84 316 2.0 6.0 0.00 0.00 0.00 25 1022.8
20260905170747 85 60 2.0 9.0 0.00 0.00 0.00 29 1022.1
20260905170247 84 352 2.0 10.0 0.00 0.00 0.00 28 1022.0
20260905170018 83 294 1.0 11.0 0.00 0.00 0.00 28 1022.7
20260905165747 84 345 2.0 10.0 0.00 0.00 0.00 28 1022.0
20260905165249 84 44 2.0 8.0 0.00 0.00 0.00 29 1021.9
20260905164747 84 333 2.0 8.0 0.00 0.00 0.00 27 1021.9
20260905164524 84 302 2.0 9.0 0.00 0.00 0.00 28 1022.6
20260905163746 85 293 2.0 7.0 0.00 0.00 0.00 29 1021.8
20260905163248 84 58 2.0 8.0 0.00 0.00 0.00 28 1021.9
20260905163030 84 330 2.0 9.0 0.00 0.00 0.00 26 1022.6
20260905162747 84 205 2.0 8.0 0.00 0.00 0.00 29 1021.9
20260905162247 84 11 2.0 7.0 0.00 0.00 0.00 30 1021.8
20260905161743 84 293 2.0 6.0 0.00 0.00 0.00 26 1021.8
20260905161521 83 85 1.0 7.0 0.00 0.00 0.00 27 1022.5
20260905160741 84 287 2.0 6.0 0.00 0.00 0.00 27 1021.8
20260905160242 83 272 2.0 6.0 0.00 0.00 0.00 29 1021.7
20260905160019 83 318 1.0 5.0 0.00 0.00 0.00 30 1022.4
20260905155739 83 281 1.0 5.0 0.00 0.00 0.00 29 1021.7
20260905155238 82 302 1.0 5.0 0.00 0.00 0.00 29 1021.7
20260905154739 81 338 2.0 6.0 0.00 0.00 0.00 35 1021.7
20260905154518 80 325 0.0 6.0 0.00 0.00 0.00 31 1022.4
20260905154238 80 340 2.0 6.0 0.00 0.00 0.00 31 1021.7
20260905153735 80 218 1.0 5.0 0.00 0.00 0.00 32 1021.7
20260905153234 79 345 1.0 5.0 0.00 0.00 0.00 33 1021.7
20260905153028 78 302 1.0 5.0 0.00 0.00 0.00 32 1022.2
20260905152735 78 292 2.0 4.0 0.00 0.00 0.00 32 1021.5
20260905152235 78 319 1.0 4.0 0.00 0.00 0.00 32 1021.5
20260905151735 79 297 2.0 7.0 0.00 0.00 0.00 32 1021.5
20260905151532 79 275 0.0 8.0 0.00 0.00 0.00 33 1022.3
20260905151233 80 260 2.0 7.0 0.00 0.00 0.00 33 1021.7
20260905150733 80 320 1.0 4.0 0.00 0.00 0.00 33 1021.7
20260905150012 78 59 0.0 1.0 0.00 0.00 0.00 38 1022.2
20260905145734 78 99 0.0 2.0 0.00 0.00 0.00 38 1021.7
20260905145233 77 35 0.0 2.0 0.00 0.00 0.00 41 1021.7
20260905144733 75 323 1.0 3.0 0.00 0.00 0.00 44 1021.7
20260905144527 74 286 0.0 4.0 0.00 0.00 0.00 40 1022.4
20260905144227 74 314 1.0 4.0 0.00 0.00 0.00 42 1021.7
20260905143214 73 328 0.0 3.0 0.00 0.00 0.00 42 1021.8
20260905143023 73 309 0.0 3.0 0.00 0.00 0.00 44 1022.4
20260905142709 73 326 0.0 2.0 0.00 0.00 0.00 49 1021.9
20260905142203 71 316 0.0 1.0 0.00 0.00 0.00 51 1021.8
20260905141658 69 316 0.0 1.0 0.00 0.00 0.00 59 1021.9
20260905141529 68 311 0.0 1.0 0.00 0.00 0.00 58 1022.4
20260905141152 68 316 0.0 1.0 0.00 0.00 0.00 59 1021.8
20260905140646 66 316 0.0 0.0 0.00 0.00 0.00 70 1021.8
20260905140140 65 316 0.0 0.0 0.00 0.00 0.00 76 1021.8
20260905140029 64 311 0.0 0.0 0.00 0.00 0.00 75 1022.3
20260905135128 63 316 0.0 1.0 0.00 0.00 0.00 70 1021.7
20260905134621 62 266 0.0 0.0 0.00 0.00 0.00 73 1021.7
20260905134512 61 263 0.0 0.0 0.00 0.00 0.00 74 1022.2
20260905134115 62 251 0.0 0.0 0.00 0.00 0.00 77 1021.7
20260905133609 61 249 0.0 1.0 0.00 0.00 0.00 76 1021.5
20260905133105 60 249 0.0 1.0 0.00 0.00 0.00 75 1021.3
20260905133024 60 244 0.0 1.0 0.00 0.00 0.00 75 1022.1
20260905132557 59 355 0.0 0.0 0.00 0.00 0.00 82 1021.4
20260905132051 58 355 0.0 0.0 0.00 0.00 0.00 80 1021.3
20260905131544 58 355 0.0 0.0 0.00 0.00 0.00 83 1021.3
20260905131528 57 348 0.0 0.0 0.00 0.00 0.00 81 1021.8
20260905131039 57 330 0.0 0.0 0.00 0.00 0.00 82 1021.2
20260905130533 56 330 0.0 0.0 0.00 0.00 0.00 83 1021.0
20260905130030 55 324 0.0 0.0 0.00 0.00 0.00 82 1021.7
20260905130028 56 330 0.0 0.0 0.00 0.00 0.00 83 1021.0
20260905125521 56 330 0.0 0.0 0.00 0.00 0.00 83 1021.0
20260905125016 56 330 0.0 0.0 0.00 0.00 0.00 83 1020.9
20260905124536 55 324 0.0 0.0 0.00 0.00 0.00 83 1021.4
20260905124509 56 330 0.0 0.0 0.00 0.00 0.00 84 1020.8
20260905124003 56 340 0.0 0.0 0.00 0.00 0.00 83 1020.8
20260905123458 56 339 0.0 1.0 0.00 0.00 0.00 82 1020.7
20260905123017 56 333 0.0 1.0 0.00 0.00 0.00 81 1021.3
20260905122445 57 339 0.0 2.0 0.00 0.00 0.00 83 1020.7
20260905121939 56 339 0.0 2.0 0.00 0.00 0.00 84 1020.7
20260905121524 55 333 0.0 1.0 0.00 0.00 0.00 85 1021.3
20260905120927 56 335 0.0 1.0 0.00 0.00 0.00 86 1020.7
20260905120421 55 335 0.0 1.0 0.00 0.00 0.00 87 1020.8
20260905120012 55 329 0.0 1.0 0.00 0.00 0.00 87 1021.3
20260905115914 55 335 0.0 1.0 0.00 0.00 0.00 87 1020.8
20260905115410 55 335 0.0 1.0 0.00 0.00 0.00 88 1020.6
20260905114903 55 335 0.0 0.0 0.00 0.00 0.00 88 1020.7
20260905114507 54 329 0.0 0.0 0.00 0.00 0.00 87 1021.1
20260905114357 55 335 0.0 0.0 0.00 0.00 0.00 87 1020.7
20260905113345 55 335 0.0 0.0 0.00 0.00 0.00 88 1020.7
20260905113014 54 329 0.0 0.0 0.00 0.00 0.00 87 1021.1
20260905112839 55 335 0.0 0.0 0.00 0.00 0.00 87 1020.7
20260905112333 55 335 0.0 0.0 0.00 0.00 0.00 86 1020.7
20260905111828 55 335 0.0 0.0 0.00 0.00 0.00 85 1020.8
20260905111525 55 329 0.0 0.0 0.00 0.00 0.00 83 1021.3
20260905111321 55 335 0.0 0.0 0.00 0.00 0.00 83 1020.8
20260905110816 56 335 0.0 0.0 0.00 0.00 0.00 82 1020.8
20260905110309 56 335 0.0 1.0 0.00 0.00 0.00 82 1020.8
20260905110027 56 329 0.0 1.0 0.00 0.00 0.00 82 1021.3
20260905105803 56 335 0.0 1.0 0.00 0.00 0.00 83 1020.9
20260905105256 56 335 0.0 1.0 0.00 0.00 0.00 87 1020.9
20260905104751 56 327 0.0 1.0 0.00 0.00 0.00 87 1021.0
20260905104509 55 345 0.0 0.0 0.00 0.00 0.00 85 1021.6
20260905104246 56 352 0.0 0.0 0.00 0.00 0.00 85 1021.0
20260905103738 56 352 0.0 0.0 0.00 0.00 0.00 84 1021.0
20260905103017 56 345 0.0 0.0 0.00 0.00 0.00 83 1021.5
20260905102728 56 352 0.0 0.0 0.00 0.00 0.00 85 1021.0
20260905102221 56 340 0.0 1.0 0.00 0.00 0.00 84 1020.9
20260905101715 56 340 0.0 1.0 0.00 0.00 0.00 85 1020.9
20260905101516 55 355 0.0 0.0 0.00 0.00 0.00 83 1021.7
20260905101209 56 359 0.0 0.0 0.00 0.00 0.00 81 1021.0
20260905100704 56 359 0.0 0.0 0.00 0.00 0.00 83 1020.9
20260905100157 56 359 0.0 0.0 0.00 0.00 0.00 80 1021.2
20260905100024 56 355 0.0 0.0 0.00 0.00 0.00 79 1021.7
20260905095651 57 359 0.0 0.0 0.00 0.00 0.00 79 1021.2
20260905095145 57 359 0.0 0.0 0.00 0.00 0.00 80 1021.2
20260905094639 57 359 0.0 0.0 0.00 0.00 0.00 80 1021.2
20260905094528 57 352 0.0 0.0 0.00 0.00 0.00 79 1021.9
20260905094134 58 359 0.0 0.0 0.00 0.00 0.00 79 1021.3
20260905093627 58 359 0.0 0.0 0.00 0.00 0.00 79 1021.3
20260905093008 58 352 0.0 0.0 0.00 0.00 0.00 78 1021.9
20260905092614 59 359 0.0 0.0 0.00 0.00 0.00 78 1021.3
20260905092110 59 359 0.0 0.0 0.00 0.00 0.00 77 1021.2
20260905091603 59 359 0.0 0.0 0.00 0.00 0.00 77 1021.2
20260905091514 59 352 0.0 0.0 0.00 0.00 0.00 77 1021.8
20260905091057 59 359 0.0 0.0 0.00 0.00 0.00 78 1021.2
20260905090045 58 359 0.0 0.0 0.00 0.00 0.00 77 1021.3
20260905090018 58 352 0.0 0.0 0.00 0.00 0.00 76 1021.9
20260905085539 58 359 0.0 0.0 0.00 0.00 0.00 77 1021.3
20260905085033 58 359 0.0 0.0 0.00 0.00 0.00 77 1021.3
20260905084532 58 352 0.0 0.0 0.00 0.00 0.00 75 1021.9
20260905084021 58 359 0.0 0.0 0.00 0.00 0.00 75 1021.2
20260905083029 58 352 0.0 0.0 0.00 0.00 0.00 73 1021.9
20260905083010 59 359 0.0 0.0 0.00 0.00 0.00 73 1021.2
20260905082503 59 359 0.0 0.0 0.00 0.00 0.00 73 1021.3
20260905081956 60 359 0.0 0.0 0.00 0.00 0.00 73 1021.4
20260905081509 59 352 0.0 0.0 0.00 0.00 0.00 71 1022.0
20260905081452 60 359 0.0 0.0 0.00 0.00 0.00 72 1021.4
20260905080439 60 359 0.0 0.0 0.00 0.00 0.00 71 1021.3
20260905080028 60 352 0.0 0.0 0.00 0.00 0.00 71 1021.8
20260905075933 60 359 0.0 0.0 0.00 0.00 0.00 71 1021.3
20260905074921 61 359 0.0 0.0 0.00 0.00 0.00 69 1021.3
20260905074526 61 355 0.0 0.0 0.00 0.00 0.00 68 1022.0
20260905074416 61 359 0.0 0.0 0.00 0.00 0.00 69 1021.3
20260905073910 62 359 0.0 0.0 0.00 0.00 0.00 68 1021.4
20260905073403 62 359 0.0 0.0 0.00 0.00 0.00 67 1021.4
20260905073035 62 352 0.0 0.0 0.00 0.00 0.00 66 1021.9
20260905072350 63 359 0.0 0.0 0.00 0.00 0.00 66 1021.4
20260905071530 64 352 0.0 0.0 0.00 0.00 0.00 63 1021.9
20260905071347 64 359 0.0 0.0 0.00 0.00 0.00 64 1021.2
20260905070348 64 8 0.0 0.0 0.00 0.00 0.00 63 1021.2
20260905070023 64 24 0.0 0.0 0.00 0.00 0.00 63 1021.7
20260905065849 64 16 0.0 0.0 0.00 0.00 0.00 63 1021.2
20260905064845 64 16 0.0 0.0 0.00 0.00 0.00 64 1021.3
20260905064536 63 23 0.0 1.0 0.00 0.00 0.00 63 1021.9
20260905063844 64 359 0.0 1.0 0.00 0.00 0.00 64 1021.2
20260905063344 64 340 0.0 0.0 0.00 0.00 0.00 64 1021.3
20260905063024 63 318 0.0 0.0 0.00 0.00 0.00 63 1021.8
20260905062843 64 39 0.0 0.0 0.00 0.00 0.00 64 1021.3
20260905062341 64 18 0.0 2.0 0.00 0.00 0.00 64 1021.2
20260905061840 64 23 0.0 2.0 0.00 0.00 0.00 64 1021.0
20260905061528 64 49 0.0 0.0 0.00 0.00 0.00 63 1021.5
20260905061341 64 44 0.0 0.0 0.00 0.00 0.00 64 1020.9
20260905060842 64 58 0.0 2.0 0.00 0.00 0.00 63 1021.0
20260905060340 65 62 0.0 5.0 0.00 0.00 0.00 62 1020.9
20260905060031 64 39 0.0 5.0 0.00 0.00 0.00 61 1021.6
20260905055839 65 49 0.0 4.0 0.00 0.00 0.00 62 1021.0
20260905055333 65 72 0.0 1.0 0.00 0.00 0.00 61 1021.2
20260905054531 65 39 0.0 1.0 0.00 0.00 0.00 60 1021.5
20260905054323 65 1 0.0 1.0 0.00 0.00 0.00 60 1020.9
20260905053816 65 32 0.0 2.0 0.00 0.00 0.00 59 1021.0
20260905053310 66 14 0.0 2.0 0.00 0.00 0.00 58 1021.0
20260905053025 66 360 0.0 1.0 0.00 0.00 0.00 57 1021.6
20260905052258 67 64 0.0 0.0 0.00 0.00 0.00 56 1020.9
20260905051541 67 123 0.0 0.0 0.00 0.00 0.00 54 1021.5
20260905051245 68 121 0.0 0.0 0.00 0.00 0.00 55 1020.9
20260905050740 68 121 0.0 0.0 0.00 0.00 0.00 54 1020.9
20260905050234 68 115 0.0 0.0 0.00 0.00 0.00 54 1020.9
20260905050033 68 117 0.0 0.0 0.00 0.00 0.00 53 1021.5
20260905045727 68 115 0.0 0.0 0.00 0.00 0.00 54 1021.0
20260905045221 68 117 0.0 2.0 0.00 0.00 0.00 54 1021.0
20260905044715 68 121 0.0 2.0 0.00 0.00 0.00 54 1021.3
20260905044534 67 87 0.0 2.0 0.00 0.00 0.00 54 1021.7
20260905043703 68 30 0.0 0.0 0.00 0.00 0.00 54 1021.2
20260905043159 68 41 0.0 0.0 0.00 0.00 0.00 53 1021.2
20260905043018 68 46 0.0 0.0 0.00 0.00 0.00 53 1021.6
20260905042146 70 41 0.0 0.0 0.00 0.00 0.00 52 1021.2
20260905041527 70 42 0.0 1.0 0.00 0.00 0.00 50 1021.6
20260905041134 71 35 0.0 2.0 0.00 0.00 0.00 50 1021.0
20260905040121 71 75 2.0 5.0 0.00 0.00 0.00 49 1021.0
20260905040029 71 96 0.0 9.0 0.00 0.00 0.00 49 1021.7
20260905035615 72 79 3.0 8.0 0.00 0.00 0.00 49 1021.0
20260905035109 71 124 3.0 8.0 0.00 0.00 0.00 48 1021.0
20260905034604 71 105 3.0 8.0 0.00 0.00 0.00 48 1021.0
20260905034535 71 94 4.0 9.0 0.00 0.00 0.00 47 1021.7
20260905034058 71 61 1.0 6.0 0.00 0.00 0.00 46 1021.0
20260905033551 71 91 1.0 5.0 0.00 0.00 0.00 44 1020.9
20260905033045 71 143 1.0 5.0 0.00 0.00 0.00 43 1020.8
20260905033032 71 105 1.0 5.0 0.00 0.00 0.00 43 1021.5
20260905032540 72 89 1.0 3.0 0.00 0.00 0.00 43 1020.8
20260905032033 72 94 1.0 3.0 0.00 0.00 0.00 42 1020.8
20260905031528 72 84 1.0 4.0 0.00 0.00 0.00 42 1020.8
20260905031523 72 118 0.0 4.0 0.00 0.00 0.00 41 1021.5
20260905031021 73 96 1.0 5.0 0.00 0.00 0.00 42 1020.8
20260905030009 73 87 1.0 5.0 0.00 0.00 0.00 41 1020.7
20260905030004 73 91 1.0 6.0 0.00 0.00 0.00 40 1021.5
20260905025504 74 63 1.0 4.0 0.00 0.00 0.00 40 1020.6
20260905024510 74 102 3.0 11.0 0.00 0.00 0.00 38 1021.3
20260905024452 74 106 2.0 10.0 0.00 0.00 0.00 38 1020.6
20260905023946 75 84 1.0 10.0 0.00 0.00 0.00 38 1020.3
20260905023440 76 145 0.0 2.0 0.00 0.00 0.00 37 1020.1
20260905023013 75 158 0.0 4.0 0.00 0.00 0.00 36 1020.8
20260905022934 76 143 0.0 3.0 0.00 0.00 0.00 37 1020.1
20260905022428 76 150 1.0 4.0 0.00 0.00 0.00 36 1019.9
20260905021921 76 160 1.0 4.0 0.00 0.00 0.00 36 1019.9
20260905021534 76 121 1.0 5.0 0.00 0.00 0.00 35 1020.5
20260905020909 77 167 2.0 6.0 0.00 0.00 0.00 35 1019.7
20260905020403 77 151 2.0 7.0 0.00 0.00 0.00 35 1019.8
20260905020028 77 182 1.0 9.0 0.00 0.00 0.00 34 1020.5
20260905015857 78 153 2.0 9.0 0.00 0.00 0.00 34 1019.8
20260905015352 78 122 3.0 9.0 0.00 0.00 0.00 33 1019.6
20260905014508 79 138 3.0 9.0 0.00 0.00 0.00 32 1020.4
20260905013834 79 164 0.0 4.0 0.00 0.00 0.00 31 1019.6
20260905013328 79 172 1.0 5.0 0.00 0.00 0.00 31 1019.6
20260905013008 79 161 0.0 6.0 0.00 0.00 0.00 30 1020.3
20260905012822 80 149 1.0 5.0 0.00 0.00 0.00 30 1019.6
20260905012315 80 160 1.0 5.0 0.00 0.00 0.00 30 1019.3
20260905011810 80 186 1.0 6.0 0.00 0.00 0.00 29 1019.5
20260905011519 79 157 1.0 6.0 0.00 0.00 0.00 29 1020.2
20260905011305 80 126 1.0 6.0 0.00 0.00 0.00 29 1019.3
20260905010757 80 141 1.0 6.0 0.00 0.00 0.00 29 1019.3
20260905010252 80 162 2.0 6.0 0.00 0.00 0.00 29 1019.3
20260905010029 80 161 1.0 7.0 0.00 0.00 0.00 28 1020.0
20260905005747 80 221 2.0 6.0 0.00 0.00 0.00 29 1019.2
20260905005240 80 143 2.0 6.0 0.00 0.00 0.00 29 1019.3
20260905004733 81 158 3.0 8.0 0.00 0.00 0.00 28 1019.2
20260905004530 80 140 2.0 11.0 0.00 0.00 0.00 28 1020.0
20260905004229 81 145 3.0 9.0 0.00 0.00 0.00 28 1019.2
20260905003721 81 153 5.0 11.0 0.00 0.00 0.00 28 1019.2
20260905003220 81 117 5.0 11.0 0.00 0.00 0.00 27 1019.2
20260905003009 81 187 5.0 11.0 0.00 0.00 0.00 27 1020.0
20260905002721 82 131 4.0 10.0 0.00 0.00 0.00 27 1019.1
20260905002221 82 115 5.0 15.0 0.00 0.00 0.00 27 1019.0
20260905001720 82 153 7.0 15.0 0.00 0.00 0.00 27 1019.1
20260905001515 82 105 8.0 18.0 0.00 0.00 0.00 26 1019.8
20260905001220 82 160 5.0 17.0 0.00 0.00 0.00 26 1019.0
20260905000721 83 157 4.0 17.0 0.00 0.00 0.00 26 1019.1
20260905000220 83 172 5.0 11.0 0.00 0.00 0.00 26 1019.0
20260905000019 83 126 6.0 13.0 0.00 0.00 0.00 25 1019.7
20260904235719 83 129 4.0 11.0 0.00 0.00 0.00 26 1019.0
20260904235220 83 181 4.0 12.0 0.00 0.00 0.00 25 1018.8
20260904234721 84 98 5.0 12.0 0.00 0.00 0.00 26 1019.0
20260904234527 83 149 5.0 13.0 0.00 0.00 0.00 25 1019.6
20260904234218 84 127 4.0 12.0 0.00 0.00 0.00 26 1019.0
20260904233217 84 118 6.0 15.0 0.00 0.00 0.00 26 1019.0
20260904233030 84 151 8.0 16.0 0.00 0.00 0.00 25 1019.4
20260904232716 84 100 5.0 11.0 0.00 0.00 0.00 25 1018.8
20260904232219 85 105 4.0 14.0 0.00 0.00 0.00 26 1018.8
20260904231717 85 122 3.0 14.0 0.00 0.00 0.00 25 1018.7
20260904231513 84 152 4.0 11.0 0.00 0.00 0.00 24 1019.4
20260904231219 85 148 3.0 9.0 0.00 0.00 0.00 25 1018.7
20260904230719 85 107 4.0 9.0 0.00 0.00 0.00 26 1018.7
20260904230216 85 165 4.0 10.0 0.00 0.00 0.00 25 1018.7
20260904230016 85 82 3.0 12.0 0.00 0.00 0.00 25 1019.2
20260904225714 86 148 4.0 10.0 0.00 0.00 0.00 25 1018.6
20260904225215 86 143 3.0 11.0 0.00 0.00 0.00 25 1018.6
20260904224715 85 217 4.0 11.0 0.00 0.00 0.00 26 1018.6
20260904224527 85 159 3.0 13.0 0.00 0.00 0.00 25 1019.2
20260904224216 85 6 4.0 12.0 0.00 0.00 0.00 26 1018.6
20260904223717 85 153 5.0 12.0 0.00 0.00 0.00 26 1018.7
20260904223215 86 148 4.0 12.0 0.00 0.00 0.00 25 1018.7
20260904223028 85 130 4.0 13.0 0.00 0.00 0.00 25 1019.4
20260904222716 86 146 4.0 14.0 0.00 0.00 0.00 27 1018.7
20260904222210 85 169 5.0 14.0 0.00 0.00 0.00 26 1018.7
20260904221543 85 122 5.0 15.0 0.00 0.00 0.00 26 1019.4
20260904221211 86 118 5.0 14.0 0.00 0.00 0.00 25 1018.8
20260904220710 85 102 5.0 14.0 0.00 0.00 0.00 26 1018.7
20260904220212 85 127 6.0 13.0 0.00 0.00 0.00 25 1018.8
20260904220012 85 115 4.0 15.0 0.00 0.00 0.00 26 1019.5
20260904215713 86 199 5.0 16.0 0.00 0.00 0.00 25 1018.8
20260904215212 86 203 4.0 16.0 0.00 0.00 0.00 26 1018.8
20260904214523 85 57 5.0 14.0 0.00 0.00 0.00 26 1019.6
20260904213706 85 60 5.0 12.0 0.00 0.00 0.00 26 1019.0
20260904213206 85 174 4.0 11.0 0.00 0.00 0.00 26 1019.0
20260904213026 84 136 2.0 12.0 0.00 0.00 0.00 26 1019.6
20260904212706 85 179 5.0 11.0 0.00 0.00 0.00 27 1019.0
20260904212208 86 79 5.0 15.0 0.00 0.00 0.00 25 1019.0
20260904211709 86 86 5.0 15.0 0.00 0.00 0.00 26 1019.1
20260904211535 86 71 4.0 16.0 0.00 0.00 0.00 25 1019.8
20260904210207 87 166 5.0 11.0 0.00 0.00 0.00 25 1019.2
20260904210042 86 84 3.0 12.0 0.00 0.00 0.00 26 1019.9
20260904205708 87 84 5.0 11.0 0.00 0.00 0.00 26 1019.2
20260904205208 86 282 4.0 10.0 0.00 0.00 0.00 26 1019.2
20260904204707 85 243 5.0 9.0 0.00 0.00 0.00 27 1019.2
20260904204516 84 80 5.0 10.0 0.00 0.00 0.00 26 1020.1
20260904204206 84 34 4.0 9.0 0.00 0.00 0.00 27 1019.3
20260904203707 84 124 3.0 9.0 0.00 0.00 0.00 26 1019.5
20260904203207 84 162 4.0 12.0 0.00 0.00 0.00 28 1019.5
20260904203030 84 281 3.0 13.0 0.00 0.00 0.00 26 1020.2
20260904202706 84 167 5.0 12.0 0.00 0.00 0.00 25 1019.5
20260904202207 85 155 4.0 11.0 0.00 0.00 0.00 26 1019.3
20260904201708 86 160 2.0 9.0 0.00 0.00 0.00 25 1019.5
20260904201531 85 155 2.0 5.0 0.00 0.00 0.00 26 1020.2
20260904201208 85 58 1.0 4.0 0.00 0.00 0.00 24 1019.5
20260904200705 85 165 1.0 4.0 0.00 0.00 0.00 24 1019.8